Time,TemperatureF,DewpointF,PressureIn,WindDirection,WindDirectionDegrees,WindSpeedMPH,WindSpeedGustMPH,Humidity,HourlyPrecipIn,Conditions,Clouds,dailyrainin,SoftwareType,DateUTC
2013-01-24 00:01:00,52.0,48.0,30.09,West,280,0.0,3.0,87,0.08,,,0.10,,2013-01-24 08:01:00,
2013-01-24 00:12:00,52.0,48.0,30.09,West,280,0.0,3.0,87,0.08,,,0.10,,2013-01-24 08:12:00,
2013-01-24 00:22:00,51.0,48.0,30.09,West,280,0.0,2.0,91,0.08,,,0.12,,2013-01-24 08:22:00,
2013-01-24 00:32:00,51.0,49.0,30.09,West,280,0.0,3.0,93,0.07,,,0.14,,2013-01-24 08:32:00,
2013-01-24 00:42:00,51.0,49.0,30.09,West,280,0.0,3.0,93,0.07,,,0.14,,2013-01-24 08:42:00,
2013-01-24 00:53:00,51.0,49.0,30.09,West,280,0.0,3.0,93,0.05,,,0.14,,2013-01-24 08:53:00,
2013-01-24 01:02:00,51.0,50.0,30.09,West,280,2.0,4.0,95,0.06,,,0.16,,2013-01-24 09:02:00,
2013-01-24 01:12:00,51.0,50.0,30.09,West,280,2.0,4.0,95,0.06,,,0.16,,2013-01-24 09:12:00,
2013-01-24 01:22:00,51.0,50.0,30.09,West,280,0.0,6.0,96,0.10,,,0.22,,2013-01-24 09:22:00,
2013-01-24 01:32:00,51.0,50.0,30.09,West,273,0.0,4.0,96,0.15,,,0.29,,2013-01-24 09:32:00,
2013-01-24 01:42:00,51.0,50.0,30.09,West,273,0.0,4.0,96,0.15,,,0.29,,2013-01-24 09:42:00,
2013-01-24 01:53:00,51.0,50.0,30.09,West,275,1.0,4.0,97,0.23,,,0.37,,2013-01-24 09:53:00,
2013-01-24 02:02:00,51.0,50.0,30.09,West,273,0.0,2.0,97,0.30,,,0.46,,2013-01-24 10:02:00,
2013-01-24 02:11:00,51.0,50.0,30.09,West,273,0.0,2.0,97,0.30,,,0.46,,2013-01-24 10:11:00,
2013-01-24 02:22:00,51.0,50.0,30.09,West,274,0.0,3.0,98,0.29,,,0.51,,2013-01-24 10:22:00,
2013-01-24 02:32:00,51.0,50.0,30.09,West,274,0.0,0.0,98,0.23,,,0.52,,2013-01-24 10:32:00,
2013-01-24 02:42:00,51.0,50.0,30.09,West,274,0.0,0.0,98,0.23,,,0.52,,2013-01-24 10:42:00,
2013-01-24 02:52:00,51.0,50.0,30.08,West,273,0.0,0.0,98,0.18,,,0.55,,2013-01-24 10:52:00,
2013-01-24 03:02:00,51.0,50.0,30.08,West,271,0.0,0.0,98,0.13,,,0.59,,2013-01-24 11:02:00,
2013-01-24 03:11:00,51.0,50.0,30.08,West,271,0.0,0.0,98,0.13,,,0.59,,2013-01-24 11:11:00,
2013-01-24 03:22:00,51.0,51.0,30.08,West,271,0.0,0.0,99,0.13,,,0.64,,2013-01-24 11:22:00,
2013-01-24 03:32:00,51.0,51.0,30.08,West,271,0.0,0.0,99,0.17,,,0.69,,2013-01-24 11:32:00,
2013-01-24 03:42:00,51.0,51.0,30.08,West,271,0.0,0.0,99,0.17,,,0.69,,2013-01-24 11:42:00,
2013-01-24 03:53:00,51.0,51.0,30.07,West,271,0.0,0.0,99,0.19,,,0.74,,2013-01-24 11:53:00,
2013-01-24 04:02:00,52.0,52.0,30.07,West,273,1.0,5.0,99,0.18,,,0.77,,2013-01-24 12:02:00,
2013-01-24 04:12:00,52.0,52.0,30.07,West,273,1.0,5.0,99,0.18,,,0.77,,2013-01-24 12:12:00,
2013-01-24 04:22:00,52.0,52.0,30.07,West,271,0.0,1.0,99,0.19,,,0.83,,2013-01-24 12:22:00,
2013-01-24 04:32:00,52.0,52.0,30.07,West,271,0.0,0.0,99,0.18,,,0.86,,2013-01-24 12:32:00,
2013-01-24 04:42:00,52.0,52.0,30.07,West,271,0.0,0.0,99,0.18,,,0.86,,2013-01-24 12:42:00,
2013-01-24 04:53:00,52.0,52.0,30.06,West,272,0.0,0.0,99,0.13,,,0.87,,2013-01-24 12:53:00,
2013-01-24 05:02:00,53.0,53.0,30.06,West,272,0.0,0.0,99,0.13,,,0.90,,2013-01-24 13:02:00,
2013-01-24 05:12:00,53.0,53.0,30.06,West,272,0.0,0.0,99,0.13,,,0.90,,2013-01-24 13:12:00,
2013-01-24 05:22:00,53.0,53.0,30.07,West,272,0.0,0.0,99,0.08,,,0.91,,2013-01-24 13:22:00,
2013-01-24 05:32:00,53.0,52.0,30.07,West,272,0.0,0.0,98,0.07,,,0.93,,2013-01-24 13:32:00,
2013-01-24 05:42:00,53.0,52.0,30.07,West,272,0.0,0.0,98,0.07,,,0.93,,2013-01-24 13:42:00,
2013-01-24 05:53:00,53.0,53.0,30.07,West,272,0.0,2.0,99,0.06,,,0.93,,2013-01-24 13:53:00,
2013-01-24 06:02:00,53.0,53.0,30.07,West,276,0.0,3.0,99,0.05,,,0.95,,2013-01-24 14:02:00,
2013-01-24 06:12:00,53.0,53.0,30.07,West,276,0.0,3.0,99,0.05,,,0.95,,2013-01-24 14:12:00,
2013-01-24 06:22:00,53.0,53.0,30.07,West,276,1.0,5.0,99,0.07,,,0.98,,2013-01-24 14:22:00,
2013-01-24 06:32:00,53.0,53.0,30.07,West,276,0.0,0.0,99,0.09,,,1.02,,2013-01-24 14:32:00,
2013-01-24 06:42:00,53.0,53.0,30.07,West,276,0.0,0.0,99,0.09,,,1.02,,2013-01-24 14:42:00,
2013-01-24 06:53:00,53.0,53.0,30.08,West,276,0.0,2.0,99,0.17,,,1.10,,2013-01-24 14:53:00,
2013-01-24 07:02:00,53.0,53.0,30.09,West,276,0.0,4.0,99,0.24,,,1.19,,2013-01-24 15:02:00,
2013-01-24 07:12:00,53.0,53.0,30.09,West,276,0.0,4.0,99,0.24,,,1.19,,2013-01-24 15:12:00,
2013-01-24 07:22:00,53.0,53.0,30.09,West,276,0.0,3.0,99,0.24,,,1.22,,2013-01-24 15:22:00,
2013-01-24 07:32:00,53.0,53.0,30.09,West,276,0.0,3.0,99,0.24,,,1.22,,2013-01-24 15:32:00,
2013-01-24 07:42:00,53.0,53.0,30.08,West,276,0.0,0.0,99,0.25,,,1.27,,2013-01-24 15:42:00,
2013-01-24 07:53:00,53.0,53.0,30.09,West,276,0.0,0.0,99,0.20,,,1.30,,2013-01-24 15:53:00,
2013-01-24 08:02:00,53.0,53.0,30.09,West,276,0.0,0.0,99,0.13,,,1.32,,2013-01-24 16:02:00,
2013-01-24 08:12:00,53.0,53.0,30.09,West,276,0.0,0.0,99,0.13,,,1.32,,2013-01-24 16:12:00,
2013-01-24 08:22:00,53.0,53.0,30.09,West,276,0.0,0.0,99,0.13,,,1.35,,2013-01-24 16:22:00,
2013-01-24 08:33:00,53.0,53.0,30.10,West,276,0.0,0.0,100,0.10,,,1.37,,2013-01-24 16:33:00,
2013-01-24 08:42:00,53.0,53.0,30.10,West,276,0.0,0.0,100,0.10,,,1.37,,2013-01-24 16:42:00,
2013-01-24 09:01:00,54.0,54.0,30.12,West,276,0.0,0.0,100,0.08,,,1.40,,2013-01-24 17:01:00,
2013-01-24 09:11:00,54.0,54.0,30.12,West,276,0.0,0.0,100,0.08,,,1.40,,2013-01-24 17:11:00,
2013-01-24 09:21:00,54.0,54.0,30.13,West,276,0.0,0.0,100,0.08,,,1.43,,2013-01-24 17:21:00,
2013-01-24 09:31:00,54.0,54.0,30.13,West,276,0.0,0.0,100,0.11,,,1.48,,2013-01-24 17:31:00,
2013-01-24 09:42:00,54.0,54.0,30.13,West,276,0.0,0.0,100,0.11,,,1.48,,2013-01-24 17:42:00,
2013-01-24 09:52:00,54.0,54.0,30.14,West,276,0.0,0.0,100,0.10,,,1.49,,2013-01-24 17:52:00,
2013-01-24 10:01:00,55.0,55.0,30.14,West,276,2.0,4.0,100,0.10,,,1.50,,2013-01-24 18:01:00,
2013-01-24 10:11:00,55.0,55.0,30.14,West,276,0.0,0.0,100,0.07,,,1.50,,2013-01-24 18:11:00,
2013-01-24 10:21:00,55.0,55.0,30.14,West,276,0.0,0.0,100,0.07,,,1.50,,2013-01-24 18:21:00,
2013-01-24 10:32:00,55.0,55.0,30.15,West,276,0.0,0.0,99,0.03,,,1.51,,2013-01-24 18:32:00,
2013-01-24 10:41:00,55.0,55.0,30.15,West,276,0.0,0.0,99,0.03,,,1.51,,2013-01-24 18:41:00,
2013-01-24 10:53:00,56.0,56.0,30.15,West,276,0.0,0.0,99,0.03,,,1.52,,2013-01-24 18:53:00,
2013-01-24 11:01:00,56.0,56.0,30.15,West,276,0.0,0.0,99,0.02,,,1.52,,2013-01-24 19:01:00,
2013-01-24 11:11:00,56.0,56.0,30.15,West,276,0.0,0.0,99,0.02,,,1.52,,2013-01-24 19:11:00,
2013-01-24 11:21:00,56.0,56.0,30.14,West,276,2.0,4.0,99,0.02,,,1.52,,2013-01-24 19:21:00,
2013-01-24 11:32:00,56.0,56.0,30.14,West,276,0.0,4.0,99,0.02,,,1.53,,2013-01-24 19:32:00,
2013-01-24 11:41:00,56.0,56.0,30.14,West,276,1.0,4.0,100,0.03,,,1.55,,2013-01-24 19:41:00,
2013-01-24 11:52:00,56.0,56.0,30.14,West,276,1.0,4.0,100,0.03,,,1.55,,2013-01-24 19:52:00,
2013-01-24 12:01:00,56.0,56.0,30.14,West,276,0.0,4.0,100,0.03,,,1.55,,2013-01-24 20:01:00,
2013-01-24 12:11:00,56.0,56.0,30.14,West,276,0.0,4.0,100,0.03,,,1.55,,2013-01-24 20:11:00,
2013-01-24 12:21:00,57.0,57.0,30.12,West,276,0.0,0.0,100,0.03,,,1.55,,2013-01-24 20:21:00,
2013-01-24 12:32:00,57.0,57.0,30.13,West,276,0.0,3.0,100,0.02,,,1.55,,2013-01-24 20:32:00,
2013-01-24 12:42:00,57.0,57.0,30.13,West,276,0.0,3.0,100,0.02,,,1.55,,2013-01-24 20:42:00,
2013-01-24 12:52:00,57.0,57.0,30.11,West,276,0.0,2.0,100,0.00,,,1.55,,2013-01-24 20:52:00,
2013-01-24 13:01:00,58.0,58.0,30.11,West,276,0.0,4.0,99,0.00,,,1.55,,2013-01-24 21:01:00,
2013-01-24 13:11:00,58.0,58.0,30.11,West,276,0.0,4.0,99,0.00,,,1.55,,2013-01-24 21:11:00,
2013-01-24 13:22:00,58.0,57.0,30.11,West,276,0.0,2.0,97,0.00,,,1.55,,2013-01-24 21:22:00,
2013-01-24 13:32:00,58.0,57.0,30.10,NW,318,4.0,6.0,97,0.00,,,1.55,,2013-01-24 21:32:00,
2013-01-24 13:42:00,58.0,57.0,30.10,NW,318,4.0,6.0,97,0.00,,,1.55,,2013-01-24 21:42:00,
2013-01-24 13:52:00,58.0,57.0,30.10,WNW,287,0.0,4.0,97,0.00,,,1.55,,2013-01-24 21:52:00,
2013-01-24 14:02:00,58.0,57.0,30.10,WNW,287,0.0,0.0,96,0.00,,,1.55,,2013-01-24 22:02:00,
2013-01-24 14:11:00,58.0,57.0,30.10,WNW,287,0.0,0.0,96,0.00,,,1.55,,2013-01-24 22:11:00,
2013-01-24 14:21:00,58.0,56.0,30.09,WNW,298,3.0,4.0,94,0.00,,,1.55,,2013-01-24 22:21:00,
2013-01-24 14:31:00,58.0,56.0,30.09,ESE,120,1.0,6.0,92,0.00,,,1.55,,2013-01-24 22:31:00,
2013-01-24 14:42:00,58.0,56.0,30.09,ESE,120,1.0,6.0,92,0.00,,,1.55,,2013-01-24 22:42:00,
2013-01-24 14:52:00,58.0,56.0,30.09,East,88,0.0,5.0,92,0.00,,,1.55,,2013-01-24 22:52:00,
2013-01-24 15:01:00,58.0,55.0,30.09,ESE,109,0.0,7.0,91,0.00,,,1.55,,2013-01-24 23:01:00,
2013-01-24 15:11:00,58.0,55.0,30.09,ESE,109,0.0,7.0,91,0.00,,,1.55,,2013-01-24 23:11:00,
2013-01-24 15:21:00,59.0,57.0,30.09,ESE,103,0.0,3.0,92,0.00,,,1.55,,2013-01-24 23:21:00,
2013-01-24 15:31:00,59.0,57.0,30.10,ESE,103,0.0,0.0,93,0.00,,,1.55,,2013-01-24 23:31:00,
2013-01-24 15:42:00,59.0,57.0,30.10,ESE,103,0.0,0.0,93,0.00,,,1.55,,2013-01-24 23:42:00,
2013-01-24 15:52:00,59.0,56.0,30.10,ESE,103,0.0,0.0,91,0.00,,,1.55,,2013-01-24 23:52:00,
2013-01-24 16:01:00,59.0,57.0,30.09,NNW,336,1.0,4.0,93,0.00,,,1.55,,2013-01-25 00:01:00,
2013-01-24 16:11:00,59.0,57.0,30.09,NNW,336,1.0,4.0,93,0.00,,,1.55,,2013-01-25 00:11:00,
2013-01-24 16:21:00,59.0,57.0,30.09,NNW,336,1.0,3.0,92,0.00,,,1.55,,2013-01-25 00:21:00,
2013-01-24 16:31:00,59.0,57.0,30.09,NNW,334,0.0,3.0,94,0.00,,,1.55,,2013-01-25 00:31:00,
2013-01-24 16:41:00,59.0,57.0,30.09,NNW,334,0.0,3.0,94,0.00,,,1.55,,2013-01-25 00:41:00,
2013-01-24 16:52:00,58.0,56.0,30.09,NW,307,0.0,3.0,93,0.00,,,1.55,,2013-01-25 00:52:00,
2013-01-24 17:01:00,59.0,58.0,30.11,NW,307,0.0,0.0,95,0.00,,,1.55,,2013-01-25 01:01:00,
2013-01-24 17:11:00,59.0,58.0,30.11,NW,307,0.0,0.0,95,0.00,,,1.55,,2013-01-25 01:11:00,
2013-01-24 17:21:00,58.0,56.0,30.11,NW,307,0.0,0.0,93,0.00,,,1.55,,2013-01-25 01:21:00,
2013-01-24 17:31:00,58.0,56.0,30.11,NW,307,0.0,0.0,92,0.00,,,1.55,,2013-01-25 01:31:00,
2013-01-24 17:41:00,58.0,56.0,30.11,NW,307,0.0,0.0,92,0.00,,,1.55,,2013-01-25 01:41:00,
2013-01-24 17:52:00,58.0,56.0,30.11,NW,308,1.0,4.0,92,0.00,,,1.55,,2013-01-25 01:52:00,
2013-01-24 18:01:00,58.0,56.0,30.11,NW,309,0.0,3.0,93,0.00,,,1.55,,2013-01-25 02:01:00,
2013-01-24 18:11:00,58.0,56.0,30.11,NW,309,0.0,3.0,93,0.00,,,1.55,,2013-01-25 02:11:00,
2013-01-24 18:22:00,58.0,56.0,30.11,NW,323,2.0,3.0,94,0.00,,,1.55,,2013-01-25 02:22:00,
2013-01-24 18:31:00,57.0,56.0,30.10,NW,323,2.0,3.0,95,0.00,,,1.55,,2013-01-25 02:31:00,
2013-01-24 18:42:00,57.0,56.0,30.10,NW,323,2.0,3.0,95,0.00,,,1.55,,2013-01-25 02:42:00,
2013-01-24 18:52:00,58.0,57.0,30.11,NW,323,0.0,2.0,95,0.00,,,1.55,,2013-01-25 02:52:00,
2013-01-24 19:01:00,56.0,55.0,30.11,NW,323,0.0,0.0,96,0.00,,,1.55,,2013-01-25 03:01:00,
2013-01-24 19:11:00,56.0,55.0,30.11,NW,323,0.0,0.0,98,0.00,,,1.55,,2013-01-25 03:11:00,
2013-01-24 19:21:00,56.0,55.0,30.11,NW,323,0.0,0.0,98,0.00,,,1.55,,2013-01-25 03:21:00,
2013-01-24 19:32:00,56.0,55.0,30.11,NW,323,0.0,0.0,98,0.00,,,1.55,,2013-01-25 03:32:00,
2013-01-24 19:41:00,56.0,55.0,30.11,NW,323,0.0,0.0,98,0.00,,,1.55,,2013-01-25 03:41:00,
2013-01-24 19:52:00,57.0,56.0,30.10,NW,323,0.0,0.0,97,0.00,,,1.55,,2013-01-25 03:52:00,
2013-01-24 20:01:00,56.0,55.0,30.11,North,11,2.0,5.0,96,0.00,,,1.55,,2013-01-25 04:01:00,
2013-01-24 20:11:00,56.0,55.0,30.11,North,11,0.0,0.0,96,0.00,,,1.55,,2013-01-25 04:11:00,
2013-01-24 20:22:00,56.0,55.0,30.11,North,11,0.0,0.0,96,0.00,,,1.55,,2013-01-25 04:22:00,
2013-01-24 20:31:00,57.0,56.0,30.11,North,11,0.0,2.0,95,0.00,,,1.55,,2013-01-25 04:31:00,
2013-01-24 20:41:00,57.0,56.0,30.11,North,11,0.0,2.0,95,0.00,,,1.55,,2013-01-25 04:41:00,
2013-01-24 20:51:00,57.0,55.0,30.10,North,11,0.0,3.0,93,0.00,,,1.55,,2013-01-25 04:51:00,
2013-01-24 21:03:00,57.0,55.0,30.10,NNE,12,3.0,4.0,94,0.00,,,1.55,,2013-01-25 05:03:00,
2013-01-24 21:12:00,56.0,55.0,30.11,NNE,12,0.0,3.0,95,0.00,,,1.55,,2013-01-25 05:12:00,
2013-01-24 21:22:00,56.0,55.0,30.11,NNE,12,0.0,3.0,95,0.00,,,1.55,,2013-01-25 05:22:00,
2013-01-24 21:31:00,55.0,54.0,30.11,WNW,303,3.0,4.0,98,0.00,,,1.55,,2013-01-25 05:31:00,
2013-01-24 21:42:00,55.0,54.0,30.11,WNW,303,3.0,4.0,98,0.00,,,1.55,,2013-01-25 05:42:00,
2013-01-24 21:52:00,55.0,55.0,30.12,WNW,284,0.0,4.0,99,0.00,,,1.55,,2013-01-25 05:52:00,
2013-01-24 22:01:00,55.0,55.0,30.13,WNW,284,0.0,0.0,99,0.00,,,1.55,,2013-01-25 06:01:00,
2013-01-24 22:11:00,55.0,55.0,30.13,WNW,284,0.0,0.0,99,0.00,,,1.55,,2013-01-25 06:11:00,
2013-01-24 22:21:00,55.0,55.0,30.13,WNW,285,2.0,3.0,99,0.00,,,1.55,,2013-01-25 06:21:00,
2013-01-24 22:31:00,55.0,54.0,30.12,NNE,25,3.0,5.0,98,0.00,,,1.55,,2013-01-25 06:31:00,
2013-01-24 22:41:00,55.0,54.0,30.12,NNE,25,3.0,5.0,98,0.00,,,1.55,,2013-01-25 06:41:00,
2013-01-24 22:52:00,56.0,55.0,30.13,NNE,26,1.0,3.0,97,0.00,,,1.54,,2013-01-25 06:52:00,
2013-01-24 23:01:00,57.0,55.0,30.12,NNE,27,2.0,4.0,94,0.00,,,1.54,,2013-01-25 07:01:00,
2013-01-24 23:11:00,57.0,55.0,30.12,NNE,27,2.0,4.0,94,0.00,,,1.54,,2013-01-25 07:11:00,
2013-01-24 23:21:00,57.0,55.0,30.12,NNE,27,0.0,3.0,94,0.00,,,1.54,,2013-01-25 07:21:00,
2013-01-24 23:31:00,56.0,55.0,30.13,NNE,27,2.0,4.0,95,0.00,,,1.54,,2013-01-25 07:31:00,
2013-01-24 23:41:00,56.0,55.0,30.13,NNE,27,2.0,4.0,95,0.00,,,1.54,,2013-01-25 07:41:00,
2013-01-24 23:51:00,57.0,55.0,30.12,NNE,26,2.0,4.0,93,0.00,,,1.47,,2013-01-25 07:51:00,